Location: �terpigny
(49.8910°N, 2.9249°E)
Time: 11:42:04
(UTC+00:00)

CUBESAT XI-V - Pass Details

Date: 30 June 2022
Orbit: 668 x 690 km, 98.1° (Epoch: 17 August)

Event Time Altitude Azimuth Distance (km) Brightness Sun altitude
Exits shadow 23:40:51 - 110° (ESE) 3,021 ? -16.9°
Reaches altitude 10° 23:44:04 10° 86° (E) 2,109 ? -17.0°
Maximum altitude 23:46:23 14° 55° (NE) 1,857 ? -17.0°
Drops below altitude 10° 23:48:42 10° 25° (NNE) 2,111 ? -17.0°
Sets 23:51:56 0° 0° (N) 3,028 ? -17.0°
